ACA7137 EDHI-CYQG

Flight info

Callsign ACA7137
Flight time N/A
Altitude 37000
Route ELSOB2E ELSOB Y348 OMWEG M105 AMRAK DCT SIVSU DCT GELBA DCT EVAKI/N0449F360 N581 VAXIT DCT REKNA/N0455F380 DCT CUTEL DCT GOMOT DCT NEXUS DCT FINDO DCT BRUCE DCT AMLAD DCT PIKIL/M079F380 DCT 56N020W 55N030W 53N040W 51N050W DCT ALLRY/N0453F380 N482C MIILS Q907 DERLO DCT PICUP AUTTO1
Aircraft A21N/M-SDE3FGHIRWY/LB1

Departure

Time 2026-05-08 18:20
Airport Hamburg-Finkenwerder Airport (EDHI)

Arrival

Time N/A
Airport Windsor International Airport (CYQG)
Time Latitude Longitude Altitude Speed Heading
2026-05-08 18:01 53.53885 9.83768 24 ft 0 kts 143°
2026-05-08 18:10 53.53896 9.83756 25 ft 2 kts 163°
2026-05-08 18:10 53.53910 9.83753 25 ft 2 kts 182°
2026-05-08 18:11 53.53926 9.83758 25 ft 2 kts 203°
2026-05-08 18:11 53.53939 9.83771 25 ft 2 kts 224°
2026-05-08 18:11 53.53945 9.83784 25 ft 0 kts 236°
2026-05-08 18:13 53.53945 9.83783 25 ft 0 kts 236°
2026-05-08 18:13 53.53941 9.83773 25 ft 1 kts 236°
2026-05-08 18:14 53.53927 9.83745 25 ft 5 kts 229°
2026-05-08 18:14 53.53896 9.83680 25 ft 9 kts 231°
2026-05-08 18:14 53.53837 9.83625 24 ft 11 kts 177°
2026-05-08 18:14 53.53761 9.83567 21 ft 14 kts 221°
2026-05-08 18:15 53.53682 9.83449 18 ft 16 kts 221°
2026-05-08 18:15 53.53592 9.83315 15 ft 19 kts 221°
2026-05-08 18:15 53.53499 9.83179 12 ft 14 kts 220°
2026-05-08 18:15 53.53424 9.83072 12 ft 14 kts 219°
2026-05-08 18:16 53.53336 9.83069 12 ft 13 kts 168°
2026-05-08 18:16 53.53262 9.82981 13 ft 14 kts 231°
2026-05-08 18:16 53.53194 9.82838 14 ft 18 kts 232°
2026-05-08 18:16 53.53112 9.82665 12 ft 19 kts 231°
2026-05-08 18:17 53.53028 9.82487 12 ft 19 kts 231°
2026-05-08 18:17 53.52943 9.82308 12 ft 20 kts 231°
2026-05-08 18:17 53.52858 9.82126 12 ft 19 kts 232°
2026-05-08 18:17 53.52773 9.81945 11 ft 19 kts 231°
2026-05-08 18:18 53.52687 9.81765 10 ft 20 kts 232°
2026-05-08 18:18 53.52604 9.81583 9 ft 20 kts 231°
2026-05-08 18:18 53.52574 9.81422 9 ft 14 kts 270°
2026-05-08 18:18 53.52515 9.81394 9 ft 12 kts 101°
2026-05-08 18:19 53.52565 9.81508 9 ft 14 kts 51°
2026-05-08 18:19 53.52757 9.81911 11 ft 80 kts 52°
2026-05-08 18:19 53.53242 9.82931 14 ft 141 kts 53°
2026-05-08 18:19 53.53905 9.84367 398 ft 161 kts 54°
2026-05-08 18:20 53.54599 9.85829 1069 ft 165 kts 53°
2026-05-08 18:20 53.55299 9.87279 1838 ft 165 kts 55°
2026-05-08 18:20 53.56006 9.88792 2327 ft 176 kts 55°
2026-05-08 18:20 53.56802 9.90390 2679 ft 193 kts 45°
2026-05-08 18:21 53.58102 9.91337 3011 ft 218 kts
2026-05-08 18:21 53.59645 9.90796 3269 ft 248 kts 330°
2026-05-08 18:21 53.60814 9.88592 3674 ft 268 kts 295°
2026-05-08 18:21 53.61363 9.85541 4349 ft 276 kts 283°
2026-05-08 18:22 53.61745 9.82414 5142 ft 278 kts 282°
2026-05-08 18:22 53.62143 9.79203 5975 ft 280 kts 283°
2026-05-08 18:22 53.62572 9.76024 6803 ft 281 kts 284°
2026-05-08 18:22 53.63032 9.72829 7630 ft 283 kts 284°
2026-05-08 18:23 53.63510 9.69611 8442 ft 284 kts 285°
2026-05-08 18:23 53.63994 9.66393 9271 ft 286 kts 285°
2026-05-08 18:23 53.64490 9.63138 10101 ft 288 kts 287°
2026-05-08 18:23 53.65351 9.60120 10735 ft 294 kts 309°
2026-05-08 18:24 53.66959 9.57878 11081 ft 309 kts 334°
2026-05-08 18:24 53.69032 9.56912 11543 ft 319 kts 353°
2026-05-08 18:24 53.71249 9.56458 12235 ft 322 kts 353°
2026-05-08 18:24 53.73445 9.56002 12910 ft 325 kts 353°
2026-05-08 18:25 53.75727 9.55506 13585 ft 328 kts 353°
2026-05-08 18:25 53.77999 9.54996 14237 ft 332 kts 352°
2026-05-08 18:25 53.80281 9.54475 14873 ft 334 kts 352°
2026-05-08 18:25 53.82616 9.53936 15519 ft 337 kts 352°
2026-05-08 18:26 53.84965 9.53389 16143 ft 340 kts 351°
2026-05-08 18:26 53.87301 9.52843 16752 ft 342 kts 351°
2026-05-08 18:26 53.89663 9.52288 17356 ft 344 kts 351°
2026-05-08 18:26 53.91999 9.51739 17931 ft 347 kts 351°
2026-05-08 18:27 53.94397 9.51176 18503 ft 349 kts 351°
2026-05-08 18:27 53.96001 9.50798 18871 ft 350 kts 351°
2026-05-08 18:27 53.99264 9.50196 19599 ft 355 kts 356°
2026-05-08 18:27 54.01734 9.50295 20130 ft 359 kts
2026-05-08 18:28 54.04231 9.50896 20641 ft 362 kts
2026-05-08 18:28 54.06700 9.51681 21136 ft 365 kts
2026-05-08 18:28 54.09214 9.52513 21622 ft 367 kts
2026-05-08 18:28 54.11639 9.53312 22076 ft 370 kts
2026-05-08 18:29 54.14177 9.54141 22530 ft 373 kts
2026-05-08 18:29 54.16701 9.54960 22979 ft 375 kts
2026-05-08 18:29 54.19270 9.55790 23419 ft 377 kts
2026-05-08 18:29 54.21841 9.56625 23843 ft 380 kts
2026-05-08 18:30 54.24446 9.57474 24277 ft 382 kts
2026-05-08 18:30 54.27036 9.58318 24707 ft 384 kts
2026-05-08 18:30 54.29705 9.59188 25125 ft 387 kts
2026-05-08 18:30 54.32330 9.60045 25520 ft 389 kts
2026-05-08 18:31 54.34980 9.60913 25903 ft 392 kts
2026-05-08 18:31 54.37671 9.61794 26288 ft 394 kts
2026-05-08 18:31 54.40387 9.62681 26667 ft 396 kts
2026-05-08 18:31 54.43057 9.63551 27026 ft 398 kts
2026-05-08 18:32 54.45805 9.64447 27390 ft 400 kts
2026-05-08 18:32 54.48522 9.65335 27740 ft 402 kts
2026-05-08 18:32 54.51261 9.66232 28088 ft 404 kts
2026-05-08 18:32 54.54018 9.67128 28433 ft 406 kts
2026-05-08 18:33 54.56774 9.68001 28770 ft 408 kts
2026-05-08 18:33 54.59582 9.68887 29097 ft 410 kts
2026-05-08 18:33 54.62397 9.69777 29414 ft 411 kts
2026-05-08 18:33 54.65167 9.70636 29719 ft 413 kts
2026-05-08 18:34 54.68034 9.71406 30027 ft 414 kts
2026-05-08 18:34 54.70892 9.72131 30358 ft 416 kts
2026-05-08 18:34 54.73774 9.72858 30666 ft 417 kts
2026-05-08 18:34 54.76584 9.73169 30909 ft 416 kts 354°
2026-05-08 18:35 54.79422 9.72314 31181 ft 413 kts 342°
2026-05-08 18:35 54.82055 9.70481 31437 ft 412 kts 331°
2026-05-08 18:35 54.84454 9.67733 31674 ft 412 kts 320°
2026-05-08 18:35 54.86476 9.64231 31913 ft 413 kts 309°
2026-05-08 18:36 54.88045 9.60154 32150 ft 414 kts 298°
2026-05-08 18:36 54.89238 9.55641 32395 ft 416 kts 294°
2026-05-08 18:36 54.90376 9.50959 32673 ft 417 kts 294°
2026-05-08 18:36 54.91485 9.46332 32989 ft 416 kts 294°
2026-05-08 18:37 54.92615 9.41622 33323 ft 415 kts 294°
2026-05-08 18:37 54.93731 9.36977 33632 ft 415 kts 294°
2026-05-08 18:37 54.94841 9.32360 33935 ft 415 kts 293°
2026-05-08 18:37 54.95961 9.27701 34209 ft 415 kts 293°
2026-05-08 18:38 54.97070 9.23086 34453 ft 415 kts 293°
2026-05-08 18:38 54.98183 9.18448 34714 ft 415 kts 293°
2026-05-08 18:38 54.99293 9.13816 34945 ft 414 kts 293°
2026-05-08 18:38 55.00404 9.09175 35161 ft 414 kts 293°
2026-05-08 18:39 55.01525 9.04480 35372 ft 414 kts 293°
2026-05-08 18:39 55.02626 8.99859 35548 ft 415 kts 293°
2026-05-08 18:39 55.03741 8.95169 35718 ft 416 kts 293°
2026-05-08 18:39 55.04854 8.90476 35872 ft 418 kts 292°
2026-05-08 18:40 55.05980 8.85722 36032 ft 419 kts 292°
2026-05-08 18:40 55.07086 8.81036 36193 ft 419 kts 292°
2026-05-08 18:40 55.08202 8.76305 36343 ft 420 kts 292°
2026-05-08 18:40 55.09305 8.71616 36494 ft 421 kts 292°
2026-05-08 18:41 55.10425 8.66842 36639 ft 421 kts 292°
2026-05-08 18:41 55.11534 8.62102 36785 ft 422 kts 292°
2026-05-08 18:41 55.12637 8.57381 36910 ft 423 kts 292°
2026-05-08 18:41 55.13748 8.52613 37015 ft 425 kts 292°
2026-05-08 18:42 55.14848 8.47883 37124 ft 426 kts 292°
2026-05-08 18:42 55.15972 8.43039 37198 ft 428 kts 292°
2026-05-08 18:42 55.18214 8.33339 37215 ft 428 kts 291°
2026-05-08 18:43 55.20427 8.23724 37214 ft 427 kts 291°
2026-05-08 18:43 55.22644 8.14057 37218 ft 427 kts 291°
2026-05-08 18:44 55.24828 8.04484 37217 ft 426 kts 291°
2026-05-08 18:44 55.27026 7.94803 37217 ft 426 kts 291°
2026-05-08 18:45 55.29199 7.85190 37214 ft 425 kts 291°
2026-05-08 18:45 55.31370 7.75535 37216 ft 425 kts 291°
2026-05-08 18:46 55.33541 7.65844 37213 ft 425 kts 292°
2026-05-08 18:46 55.35686 7.56227 37217 ft 425 kts 292°
2026-05-08 18:47 55.37828 7.46573 37214 ft 425 kts 292°
2026-05-08 18:47 55.39964 7.36903 37214 ft 424 kts 292°
2026-05-08 18:48 55.42086 7.27253 37211 ft 423 kts 291°
2026-05-08 18:48 55.44192 7.17634 37207 ft 423 kts 291°
2026-05-08 18:49 55.46294 7.07981 37210 ft 423 kts 291°
2026-05-08 18:49 55.48385 6.98335 37207 ft 422 kts 291°
2026-05-08 18:50 55.50467 6.88689 37005 ft 421 kts 291°
2026-05-08 18:50 55.51511 6.83832 37111 ft 423 kts 291°
2026-05-08 18:50 55.52553 6.78980 37161 ft 423 kts 291°
2026-05-08 18:51 55.54625 6.69284 37199 ft 423 kts 291°
2026-05-08 18:51 55.56700 6.59536 37207 ft 423 kts 291°
2026-05-08 18:52 55.58749 6.49855 37204 ft 422 kts 291°
2026-05-08 18:52 55.60796 6.40139 37200 ft 422 kts 291°
2026-05-08 18:53 55.62824 6.30471 37199 ft 422 kts 290°
2026-05-08 18:53 55.64864 6.20696 37203 ft 421 kts 290°
2026-05-08 18:54 55.66875 6.11012 37205 ft 421 kts 290°
2026-05-08 18:54 55.68879 6.01320 37201 ft 422 kts 290°
2026-05-08 18:55 55.70893 5.91536 37544 ft 422 kts 290°
2026-05-08 18:55 55.71894 5.86652 37733 ft 421 kts 290°
2026-05-08 18:55 55.72886 5.81810 37896 ft 421 kts 289°
2026-05-08 18:56 55.73881 5.76929 38045 ft 421 kts 289°
2026-05-08 18:56 55.74871 5.72059 38176 ft 422 kts 289°
2026-05-08 18:56 55.75870 5.67136 38194 ft 423 kts 289°
2026-05-08 18:57 55.77854 5.57313 38197 ft 422 kts 289°
2026-05-08 18:57 55.79816 5.47562 38209 ft 422 kts 289°
2026-05-08 18:58 55.81771 5.37805 38200 ft 421 kts 289°
2026-05-08 18:58 55.83720 5.28007 38206 ft 422 kts 288°
2026-05-08 18:59 55.85637 5.18112 38194 ft 422 kts 284°
2026-05-08 18:59 55.86375 5.07781 38203 ft 429 kts 272°
2026-05-08 19:00 55.86562 4.97171 38200 ft 431 kts 272°
2026-05-08 19:00 55.86736 4.86493 38196 ft 430 kts 272°
2026-05-08 19:01 55.86911 4.75917 38204 ft 430 kts 272°
2026-05-08 19:01 55.87081 4.65272 38197 ft 430 kts 272°
2026-05-08 19:02 55.87244 4.54708 38186 ft 430 kts 272°
2026-05-08 19:02 55.87400 4.44111 38187 ft 430 kts 272°
2026-05-08 19:03 55.87548 4.33454 38188 ft 430 kts 271°
2026-05-08 19:03 55.87685 4.22862 38195 ft 430 kts 271°
2026-05-08 19:04 55.87813 4.12279 38197 ft 429 kts 271°
2026-05-08 19:04 55.87932 4.01709 38183 ft 429 kts 271°
2026-05-08 19:05 55.88042 3.91182 38188 ft 429 kts 271°
2026-05-08 19:05 55.88145 3.80607 38184 ft 428 kts 271°
2026-05-08 19:06 55.88237 3.70027 38188 ft 427 kts 271°
2026-05-08 19:06 55.88319 3.59532 38183 ft 427 kts 271°
2026-05-08 19:07 55.88392 3.49017 38186 ft 427 kts 271°
2026-05-08 19:07 55.88457 3.38450 38178 ft 426 kts 271°
2026-05-08 19:08 55.88511 3.27958 38176 ft 427 kts 270°
2026-05-08 19:08 55.88559 3.17416 38176 ft 426 kts 270°
2026-05-08 19:09 55.88597 3.06948 38170 ft 425 kts 270°
2026-05-08 19:09 55.88625 2.96463 38166 ft 425 kts 270°
2026-05-08 19:10 55.88644 2.85995 38166 ft 424 kts 270°
2026-05-08 19:10 55.88654 2.75510 38160 ft 424 kts 270°
2026-05-08 19:11 55.88654 2.65089 38173 ft 424 kts 270°
2026-05-08 19:11 55.88646 2.54578 38162 ft 424 kts 270°
2026-05-08 19:12 55.88626 2.44124 38164 ft 425 kts 270°
2026-05-08 19:12 55.88700 2.33643 38149 ft 425 kts 271°
2026-05-08 19:13 55.88930 2.23177 38154 ft 425 kts 271°
2026-05-08 19:13 55.89158 2.12702 38146 ft 424 kts 271°
2026-05-08 19:14 55.89378 2.02266 38155 ft 423 kts 271°
2026-05-08 19:14 55.89586 1.91822 38169 ft 423 kts 271°
2026-05-08 19:15 55.89786 1.81424 38168 ft 423 kts 271°
2026-05-08 19:15 55.89977 1.70942 38144 ft 422 kts 271°
2026-05-08 19:16 55.90159 1.60537 38145 ft 423 kts 271°
2026-05-08 19:16 55.90333 1.50124 38146 ft 422 kts 271°
2026-05-08 19:17 55.90496 1.39773 38145 ft 422 kts 271°
2026-05-08 19:17 55.90652 1.29342 38150 ft 422 kts 270°
2026-05-08 19:18 55.90801 1.18855 38146 ft 422 kts 270°
2026-05-08 19:18 55.90939 1.08452 38140 ft 422 kts 270°
2026-05-08 19:19 55.91068 0.98113 38146 ft 422 kts 270°
2026-05-08 19:19 55.91189 0.87686 38142 ft 421 kts 270°
2026-05-08 19:20 55.91299 0.77318 38133 ft 421 kts 270°
2026-05-08 19:20 55.91404 0.66945 38136 ft 420 kts 270°
2026-05-08 19:21 55.91496 0.56534 38130 ft 421 kts 270°
2026-05-08 19:21 55.91581 0.46223 38132 ft 420 kts 270°
2026-05-08 19:22 55.91657 0.35838 38129 ft 420 kts 270°
2026-05-08 19:22 55.91724 0.25496 38121 ft 411 kts 269°
2026-05-08 19:23 55.91782 0.15409 38123 ft 409 kts 269°
2026-05-08 19:23 55.91831 0.05301 38121 ft 409 kts 269°
2026-05-08 19:24 55.91869 -0.04794 38116 ft 408 kts 269°
2026-05-08 19:24 55.91901 -0.14906 38119 ft 409 kts 269°
2026-05-08 19:25 55.91924 -0.24959 38113 ft 408 kts 269°
2026-05-08 19:25 55.91936 -0.35003 38124 ft 407 kts 269°
2026-05-08 19:26 55.92164 -0.45045 38123 ft 408 kts 274°
2026-05-08 19:26 55.93010 -0.55062 38118 ft 410 kts 279°
2026-05-08 19:27 55.94477 -0.64833 38113 ft 412 kts 285°
2026-05-08 19:27 55.96526 -0.74393 38119 ft 414 kts 288°
2026-05-08 19:28 55.98708 -0.83895 38104 ft 415 kts 289°
2026-05-08 19:28 56.00882 -0.93378 38115 ft 415 kts 288°
2026-05-08 19:29 56.03050 -1.02892 38105 ft 415 kts 288°
2026-05-08 19:29 56.05211 -1.12421 38121 ft 415 kts 288°
2026-05-08 19:30 56.07359 -1.21943 38103 ft 414 kts 288°
2026-05-08 19:30 56.09497 -1.31455 38118 ft 415 kts 288°
2026-05-08 19:31 56.11642 -1.41048 38111 ft 415 kts 288°
2026-05-08 19:31 56.13769 -1.50604 38129 ft 416 kts 288°
2026-05-08 19:32 56.15902 -1.60247 38108 ft 416 kts 288°
2026-05-08 19:32 56.18026 -1.69895 38107 ft 416 kts 287°
2026-05-08 19:33 56.20091 -1.79556 38125 ft 415 kts 285°
2026-05-08 19:33 56.21672 -1.89438 38117 ft 412 kts 279°
2026-05-08 19:34 56.22769 -1.99431 38133 ft 411 kts 277°
2026-05-08 19:34 56.23807 -2.09577 38114 ft 411 kts 277°
2026-05-08 19:35 56.24824 -2.19606 38116 ft 412 kts 277°
2026-05-08 19:35 56.25845 -2.29773 38116 ft 412 kts 277°
2026-05-08 19:36 56.26846 -2.39813 38108 ft 412 kts 277°
2026-05-08 19:36 56.27846 -2.49917 38113 ft 412 kts 277°
2026-05-08 19:37 56.28838 -2.60051 38116 ft 412 kts 277°
2026-05-08 19:37 56.29824 -2.70214 38097 ft 411 kts 276°
2026-05-08 19:38 56.30804 -2.80385 38116 ft 412 kts 276°
2026-05-08 19:38 56.31770 -2.90514 38104 ft 412 kts 276°
2026-05-08 19:39 56.32731 -3.00686 38107 ft 412 kts 276°
2026-05-08 19:39 56.33680 -3.10843 38106 ft 411 kts 276°
2026-05-08 19:40 56.34619 -3.20973 38108 ft 412 kts 276°
2026-05-08 19:40 56.35551 -3.31154 38105 ft 412 kts 276°
2026-05-08 19:41 56.36323 -3.41368 38109 ft 410 kts 272°
2026-05-08 19:41 56.36531 -3.51562 38118 ft 408 kts 267°
2026-05-08 19:42 56.36191 -3.61765 38128 ft 406 kts 263°
2026-05-08 19:42 56.35711 -3.71917 38113 ft 406 kts 263°
2026-05-08 19:43 56.35221 -3.82043 38099 ft 407 kts 263°
2026-05-08 19:43 56.34719 -3.92250 38097 ft 406 kts 263°
2026-05-08 19:44 56.34214 -4.02346 38101 ft 406 kts 262°
2026-05-08 19:44 56.33695 -4.12499 38101 ft 407 kts 262°
2026-05-08 19:45 56.33169 -4.22650 38108 ft 406 kts 262°
2026-05-08 19:45 56.32639 -4.32734 38138 ft 406 kts 262°
2026-05-08 19:46 56.32096 -4.42859 38114 ft 407 kts 262°
2026-05-08 19:46 56.31266 -4.58082 38138 ft 407 kts 262°
2026-05-08 19:47 56.30706 -4.68170 38119 ft 406 kts 262°
2026-05-08 19:47 56.30138 -4.78220 38128 ft 406 kts 262°
2026-05-08 19:48 56.29562 -4.88315 38132 ft 406 kts 261°
2026-05-08 19:48 56.28975 -4.98400 38132 ft 406 kts 262°
2026-05-08 19:49 56.28380 -5.08516 38139 ft 407 kts 261°
2026-05-08 19:49 56.27777 -5.18590 38144 ft 407 kts 261°
2026-05-08 19:50 56.27163 -5.28723 38147 ft 407 kts 262°
2026-05-08 19:50 56.26538 -5.38876 38141 ft 408 kts 262°
2026-05-08 19:51 56.25911 -5.48961 38150 ft 408 kts 262°
2026-05-08 19:51 56.25273 -5.59065 38152 ft 408 kts 261°
2026-05-08 19:52 56.24622 -5.69177 38168 ft 407 kts 261°
2026-05-08 19:52 56.24000 -5.79289 38178 ft 407 kts 262°
2026-05-08 19:53 56.23806 -5.89385 38178 ft 408 kts 268°
2026-05-08 19:53 56.24011 -5.99585 38182 ft 410 kts 269°
2026-05-08 19:54 56.24234 -6.09782 38173 ft 410 kts 269°
2026-05-08 19:54 56.24451 -6.20021 38194 ft 410 kts 269°
2026-05-08 19:55 56.24657 -6.30175 38210 ft 411 kts 269°
2026-05-08 19:55 56.24857 -6.40407 38184 ft 412 kts 269°
2026-05-08 19:56 56.25050 -6.50704 38193 ft 412 kts 269°
2026-05-08 19:56 56.25231 -6.60917 38182 ft 412 kts 269°
2026-05-08 19:57 56.25405 -6.71212 38182 ft 412 kts 269°
2026-05-08 19:57 56.25570 -6.81425 38199 ft 412 kts 269°
2026-05-08 19:58 56.25726 -6.91676 38195 ft 412 kts 269°
2026-05-08 19:58 56.25874 -7.01934 38204 ft 412 kts 269°
2026-05-08 19:59 56.26014 -7.12171 38208 ft 413 kts 269°
2026-05-08 19:59 56.26147 -7.22501 38212 ft 413 kts 269°
2026-05-08 20:00 56.26269 -7.32740 38202 ft 414 kts 269°
2026-05-08 20:00 56.26385 -7.43093 38201 ft 414 kts 269°
2026-05-08 20:01 56.26490 -7.53359 38199 ft 414 kts 269°
2026-05-08 20:01 56.26589 -7.63684 38212 ft 414 kts 269°
2026-05-08 20:02 56.26677 -7.74011 38196 ft 414 kts 268°
2026-05-08 20:02 56.26756 -7.84344 38208 ft 415 kts 268°
2026-05-08 20:03 56.26830 -7.94711 38201 ft 415 kts 268°
2026-05-08 20:03 56.26895 -8.05044 38206 ft 415 kts 268°
2026-05-08 20:04 56.26949 -8.15383 38225 ft 417 kts 268°
2026-05-08 20:04 56.26996 -8.25829 38209 ft 417 kts 268°
2026-05-08 20:05 56.27034 -8.36224 38217 ft 418 kts 268°
2026-05-08 20:05 56.27063 -8.46604 38230 ft 418 kts 268°
2026-05-08 20:06 56.27082 -8.57057 38230 ft 419 kts 268°
2026-05-08 20:06 56.27094 -8.67513 38223 ft 419 kts 268°
2026-05-08 20:07 56.27096 -8.77940 38220 ft 419 kts 268°
2026-05-08 20:07 56.27093 -8.88339 38224 ft 419 kts 268°
2026-05-08 20:08 56.27075 -8.98839 38232 ft 421 kts 268°
2026-05-08 20:08 56.27053 -9.09276 38237 ft 421 kts 268°
2026-05-08 20:09 56.27020 -9.19774 38229 ft 421 kts 268°
2026-05-08 20:09 56.26979 -9.30267 38230 ft 421 kts 268°
2026-05-08 20:10 56.26927 -9.40768 38238 ft 422 kts 268°
2026-05-08 20:10 56.26868 -9.51297 38249 ft 423 kts 268°
2026-05-08 20:11 56.26799 -9.61793 38235 ft 424 kts 268°
2026-05-08 20:11 56.26719 -9.72327 38231 ft 423 kts 268°
2026-05-08 20:12 56.26631 -9.82936 38258 ft 424 kts 267°
2026-05-08 20:12 56.26532 -9.93500 38241 ft 424 kts 268°
2026-05-08 20:13 56.26339 -10.04041 38245 ft 424 kts 266°
2026-05-08 20:13 56.25999 -10.14547 38246 ft 424 kts 265°
2026-05-08 20:14 56.25641 -10.25097 38244 ft 423 kts 265°
2026-05-08 20:14 56.25274 -10.35618 38249 ft 424 kts 265°
2026-05-08 20:15 56.24897 -10.46127 38249 ft 425 kts 266°
2026-05-08 20:15 56.24511 -10.56690 38248 ft 426 kts 266°
2026-05-08 20:16 56.24113 -10.67303 38258 ft 426 kts 265°
2026-05-08 20:16 56.23708 -10.77878 38258 ft 426 kts 265°
2026-05-08 20:17 56.23293 -10.88482 38251 ft 427 kts 265°
2026-05-08 20:17 56.22870 -10.99033 38270 ft 428 kts 265°
2026-05-08 20:18 56.22432 -11.09680 38268 ft 428 kts 265°
2026-05-08 20:18 56.21988 -11.20294 38267 ft 429 kts 265°
2026-05-08 20:19 56.21535 -11.30947 38267 ft 429 kts 265°
2026-05-08 20:19 56.21073 -11.41532 38281 ft 429 kts 265°
2026-05-08 20:20 56.20599 -11.52225 38280 ft 429 kts 265°
2026-05-08 20:20 56.20121 -11.62783 38276 ft 430 kts 265°
2026-05-08 20:21 56.19629 -11.73436 38282 ft 431 kts 265°
2026-05-08 20:21 56.19127 -11.84095 38276 ft 431 kts 265°
2026-05-08 20:22 56.18613 -11.94827 38287 ft 432 kts 265°
2026-05-08 20:22 56.18093 -12.05540 38287 ft 431 kts 265°
2026-05-08 20:23 56.17564 -12.16184 38298 ft 433 kts 265°
2026-05-08 20:23 56.17021 -12.26932 38301 ft 432 kts 265°
2026-05-08 20:24 56.16473 -12.37585 38303 ft 433 kts 265°
2026-05-08 20:24 56.15911 -12.48315 38294 ft 433 kts 265°
2026-05-08 20:25 56.15339 -12.59069 38300 ft 434 kts 265°
2026-05-08 20:25 56.14761 -12.69794 38307 ft 435 kts 264°
2026-05-08 20:26 56.14169 -12.80563 38297 ft 435 kts 265°
2026-05-08 20:26 56.13572 -12.91263 38302 ft 435 kts 265°
2026-05-08 20:27 56.12963 -13.02014 38313 ft 435 kts 264°
2026-05-08 20:27 56.12342 -13.12791 38312 ft 436 kts 265°
2026-05-08 20:28 56.11713 -13.23550 38313 ft 435 kts 265°
2026-05-08 20:28 56.11074 -13.34295 38313 ft 436 kts 265°
2026-05-08 20:29 56.10424 -13.45080 38323 ft 437 kts 265°
2026-05-08 20:29 56.09767 -13.55845 38319 ft 438 kts 265°
2026-05-08 20:30 56.09099 -13.66606 38321 ft 438 kts 264°
2026-05-08 20:30 56.08421 -13.77368 38325 ft 438 kts 264°
2026-05-08 20:31 56.07729 -13.88204 38328 ft 439 kts 264°
2026-05-08 20:31 56.07029 -13.99030 38331 ft 439 kts 264°
2026-05-08 20:32 56.06324 -14.09775 38333 ft 440 kts 264°
2026-05-08 20:32 56.05600 -14.20659 38337 ft 440 kts 264°
2026-05-08 20:33 56.04871 -14.31447 38342 ft 440 kts 265°
2026-05-08 20:33 56.04134 -14.42215 38343 ft 440 kts 265°
2026-05-08 20:34 56.03384 -14.53057 38345 ft 440 kts 265°
2026-05-08 20:35 56.02244 -14.69235 38347 ft 440 kts 264°
2026-05-08 20:35 56.01470 -14.80014 38354 ft 439 kts 264°
2026-05-08 20:36 56.00685 -14.90825 38357 ft 440 kts 264°
2026-05-08 20:36 56.00176 -15.01664 38355 ft 439 kts 270°
2026-05-08 20:37 56.00250 -15.12470 38349 ft 439 kts 274°
2026-05-08 20:37 56.00461 -15.23344 38345 ft 439 kts 274°
2026-05-08 20:38 56.00662 -15.34254 38351 ft 439 kts 274°
2026-05-08 20:38 56.00848 -15.45062 38359 ft 438 kts 274°
2026-05-08 20:39 56.01025 -15.55976 38363 ft 438 kts 274°
2026-05-08 20:39 56.01191 -15.66751 38361 ft 438 kts 273°
2026-05-08 20:40 56.01348 -15.77646 38365 ft 439 kts 273°
2026-05-08 20:40 56.01495 -15.88518 38368 ft 439 kts 273°
2026-05-08 20:41 56.01633 -15.99398 38372 ft 441 kts 273°
2026-05-08 20:41 56.01761 -16.10268 38375 ft 441 kts 273°
2026-05-08 20:42 56.01878 -16.21167 38381 ft 441 kts 274°
2026-05-08 20:42 56.01987 -16.32066 38379 ft 440 kts 274°
2026-05-08 20:43 56.02088 -16.43018 38377 ft 440 kts 274°
2026-05-08 20:43 56.02177 -16.53882 38382 ft 440 kts 274°
2026-05-08 20:44 56.02257 -16.64813 38387 ft 440 kts 274°
2026-05-08 20:44 56.02329 -16.75733 38394 ft 441 kts 273°
2026-05-08 20:45 56.02390 -16.86579 38396 ft 442 kts 273°
2026-05-08 20:45 56.02441 -16.97587 38395 ft 443 kts 273°
2026-05-08 20:46 56.02483 -17.08549 38399 ft 442 kts 273°
2026-05-08 20:46 56.02514 -17.19437 38401 ft 443 kts 273°
2026-05-08 20:47 56.02535 -17.30418 38398 ft 443 kts 273°
2026-05-08 20:47 56.02550 -17.41340 38404 ft 442 kts 273°
2026-05-08 20:48 56.02553 -17.52380 38408 ft 442 kts 273°
2026-05-08 20:48 56.02547 -17.63339 38408 ft 443 kts 273°
2026-05-08 20:49 56.02529 -17.74261 38413 ft 443 kts 272°
2026-05-08 20:49 56.02502 -17.85253 38414 ft 443 kts 273°
2026-05-08 20:50 56.02468 -17.96209 38415 ft 444 kts 272°
2026-05-08 20:50 56.02420 -18.07248 38411 ft 444 kts 273°
2026-05-08 20:51 56.02364 -18.18224 38407 ft 444 kts 273°
2026-05-08 20:51 56.02299 -18.29212 38407 ft 445 kts 273°
2026-05-08 20:52 56.02224 -18.40264 38407 ft 445 kts 273°
2026-05-08 20:52 56.02140 -18.51225 38408 ft 445 kts 273°
2026-05-08 20:53 56.02045 -18.62240 38412 ft 445 kts 273°
2026-05-08 20:53 56.01939 -18.73294 38419 ft 446 kts 272°
2026-05-08 20:54 56.01823 -18.84368 38415 ft 447 kts 272°
2026-05-08 20:54 56.01699 -18.95404 38415 ft 447 kts 272°
2026-05-08 20:55 56.01562 -19.06476 38422 ft 447 kts 273°
2026-05-08 20:55 56.01418 -19.17558 38420 ft 447 kts 272°
2026-05-08 20:56 56.01263 -19.28604 38424 ft 446 kts 273°
2026-05-08 20:56 56.01097 -19.39709 38428 ft 446 kts 273°
2026-05-08 20:57 56.00922 -19.50718 38430 ft 447 kts 272°
2026-05-08 20:57 56.00738 -19.61739 38427 ft 447 kts 273°
2026-05-08 20:58 56.00541 -19.72807 38405 ft 447 kts 272°
2026-05-08 20:58 56.00332 -19.83943 38430 ft 448 kts 272°
2026-05-08 20:59 56.00115 -19.94985 38435 ft 449 kts 272°
2026-05-08 20:59 55.99676 -20.06101 38433 ft 451 kts 269°
2026-05-08 21:00 55.99033 -20.17176 38464 ft 450 kts 268°
2026-05-08 21:00 55.98374 -20.28247 38456 ft 450 kts 269°
2026-05-08 21:01 55.97707 -20.39299 38455 ft 450 kts 269°
2026-05-08 21:01 55.97028 -20.50400 38455 ft 451 kts 269°
2026-05-08 21:02 55.96341 -20.61467 38452 ft 452 kts 269°
2026-05-08 21:02 55.95643 -20.72546 38458 ft 451 kts 268°
2026-05-08 21:03 55.94939 -20.83583 38464 ft 451 kts 268°
2026-05-08 21:03 55.94223 -20.94635 38463 ft 450 kts 268°
2026-05-08 21:04 55.93495 -21.05699 38460 ft 450 kts 268°
2026-05-08 21:04 55.92756 -21.16791 38457 ft 451 kts 268°
2026-05-08 21:05 55.92007 -21.27861 38455 ft 451 kts 269°
2026-05-08 21:05 55.91250 -21.38920 38453 ft 452 kts 269°
2026-05-08 21:06 55.90489 -21.49891 38456 ft 450 kts 269°
2026-05-08 21:06 55.89711 -21.60944 38456 ft 451 kts 269°
2026-05-08 21:07 55.88921 -21.72041 38456 ft 452 kts 268°
2026-05-08 21:07 55.88121 -21.83099 38453 ft 452 kts 268°
2026-05-08 21:08 55.87312 -21.94159 38459 ft 452 kts 268°
2026-05-08 21:08 55.86499 -22.05176 38462 ft 454 kts 269°
2026-05-08 21:09 55.85666 -22.16283 38467 ft 454 kts 269°
2026-05-08 21:09 55.84822 -22.27374 38481 ft 454 kts 269°
2026-05-08 21:10 55.83968 -22.38500 38473 ft 454 kts 269°
2026-05-08 21:10 55.83104 -22.49602 38482 ft 454 kts 269°
2026-05-08 21:11 55.82239 -22.60607 38481 ft 454 kts 269°
2026-05-08 21:11 55.81353 -22.71718 38395 ft 454 kts 268°
2026-05-08 21:12 55.80461 -22.82782 38454 ft 453 kts 268°
2026-05-08 21:12 55.79561 -22.93841 38465 ft 454 kts 268°
2026-05-08 21:13 55.78646 -23.04943 38464 ft 455 kts 269°
2026-05-08 21:13 55.77725 -23.15980 38476 ft 455 kts 269°
2026-05-08 21:14 55.76788 -23.27103 38476 ft 456 kts 269°
2026-05-08 21:14 55.75844 -23.38170 38483 ft 454 kts 269°
2026-05-08 21:15 55.74894 -23.49162 38482 ft 454 kts 269°
2026-05-08 21:15 55.73933 -23.60202 38487 ft 454 kts 269°
2026-05-08 21:16 55.72963 -23.71227 38489 ft 454 kts 268°
2026-05-08 21:16 55.71980 -23.82272 38496 ft 454 kts 269°
2026-05-08 21:17 55.70986 -23.93315 38496 ft 455 kts 269°
2026-05-08 21:17 55.69987 -24.04296 38502 ft 454 kts 269°
2026-05-08 21:18 55.68974 -24.15333 38499 ft 454 kts 269°
2026-05-08 21:18 55.67958 -24.26297 38492 ft 453 kts 269°
2026-05-08 21:19 55.66933 -24.37220 38495 ft 452 kts 269°
2026-05-08 21:19 55.65894 -24.48211 38491 ft 453 kts 269°
2026-05-08 21:20 55.64850 -24.59143 38491 ft 455 kts 269°
2026-05-08 21:20 55.63791 -24.70112 38489 ft 454 kts 268°
2026-05-08 21:21 55.62717 -24.81110 38497 ft 454 kts 269°
2026-05-08 21:21 55.61641 -24.92040 38519 ft 453 kts 269°
2026-05-08 21:22 55.60556 -25.02953 38519 ft 453 kts 269°
2026-05-08 21:22 55.59460 -25.13885 38521 ft 453 kts 269°
2026-05-08 21:23 55.58354 -25.24823 38523 ft 453 kts 269°
2026-05-08 21:23 55.57239 -25.35723 38516 ft 453 kts 269°
2026-05-08 21:24 55.56112 -25.46647 38512 ft 452 kts 269°
2026-05-08 21:24 55.54978 -25.57542 38509 ft 452 kts 269°
2026-05-08 21:25 55.53837 -25.68386 38513 ft 451 kts 268°
2026-05-08 21:25 55.52690 -25.79218 38510 ft 451 kts 268°
2026-05-08 21:26 55.51533 -25.90041 38517 ft 453 kts 268°
2026-05-08 21:26 55.50357 -26.00935 38514 ft 452 kts 268°
2026-05-08 21:27 55.49177 -26.11768 38528 ft 450 kts 268°
2026-05-08 21:27 55.47990 -26.22579 38524 ft 450 kts 268°
2026-05-08 21:28 55.46795 -26.33352 38525 ft 450 kts 269°
2026-05-08 21:28 55.45596 -26.44112 38529 ft 450 kts 269°